GW1035 Weather Reports


time (UTC)temp
F
wind
direction
speed
knots
gust
knots
rain 1hr
in
rain 24hr
in
rain mn
in
humidity
%
barometer
mb
20260508033535 46 293 0.0 0.9 0.00 0.06 0.06 53 1007.7
20260508033048 47 328 0.0 0.9 0.00 0.06 0.06 52 1007.9
20260508032538 47 0 0.0 0.9 0.00 0.06 0.06 51 1007.8
20260508032040 47 0 0.0 0.9 0.00 0.06 0.06 50 1007.8
20260508031545 47 0 0.0 0.9 0.00 0.06 0.06 51 1007.7
20260508031039 47 352 0.0 0.9 0.00 0.06 0.06 50 1007.7
20260508030537 47 8 0.0 1.7 0.00 0.06 0.06 52 1007.8
20260508030054 47 0 0.0 1.7 0.00 0.06 0.06 51 1007.8
20260508025537 48 294 0.0 1.7 0.00 0.06 0.06 51 1007.7
20260508025039 48 0 0.0 1.7 0.00 0.06 0.06 49 1007.7
20260508024547 48 24 0.0 0.9 0.00 0.06 0.06 48 1007.7
20260508024038 48 0 0.0 0.9 0.00 0.06 0.06 48 1007.8
20260508023538 48 0 0.0 0.9 0.00 0.06 0.06 48 1007.7
20260508023053 49 0 0.0 2.6 0.00 0.06 0.06 47 1007.6
20260508022535 49 0 0.0 2.6 0.00 0.06 0.06 47 1007.5
20260508022036 49 39 0.0 5.2 0.00 0.06 0.06 46 1007.4
20260508021550 50 0 0.0 5.2 0.00 0.06 0.06 45 1007.3
20260508021035 50 19 1.7 5.2 0.00 0.06 0.06 45 1007.3
20260508020542 50 27 0.9 4.3 0.00 0.06 0.06 45 1007.2
20260508020056 50 330 0.9 4.3 0.00 0.06 0.06 45 1007.3
20260508015539 50 319 0.9 7.0 0.00 0.08 0.06 44 1007.3
20260508015039 51 13 0.9 7.0 0.00 0.08 0.06 43 1007.1
20260508014545 51 65 1.7 7.0 0.00 0.08 0.06 43 1007.2
20260508014040 51 41 1.7 5.2 0.00 0.08 0.06 43 1007.2
20260508013537 51 347 1.7 4.3 0.00 0.08 0.06 42 1006.9
20260508013050 51 347 1.7 4.3 0.00 0.08 0.06 43 1006.9
20260508012537 51 0 0.9 2.6 0.00 0.08 0.06 42 1006.9
20260508012038 52 32 0.0 5.2 0.00 0.08 0.06 41 1006.8
20260508011547 52 319 0.9 5.2 0.00 0.08 0.06 41 1006.7
20260508011039 52 357 0.9 4.3 0.00 0.08 0.06 41 1006.7
20260508010536 52 0 0.0 3.5 0.00 0.08 0.06 41 1006.6
20260508010045 52 0 0.9 3.5 0.00 0.08 0.06 40 1006.6
20260508005539 52 44 0.9 4.3 0.00 0.09 0.06 41 1006.5
20260508005040 52 345 0.9 4.3 0.00 0.09 0.06 41 1006.4
20260508004555 52 22 0.9 4.3 0.00 0.09 0.06 42 1006.3
20260508004038 52 0 0.0 0.0 0.00 0.09 0.06 42 1006.2
20260508003542 52 0 0.0 0.9 0.00 0.09 0.06 41 1006.1
20260508003050 53 0 0.0 2.6 0.00 0.09 0.06 40 1005.9
20260508002537 53 0 0.0 2.6 0.00 0.09 0.06 39 1005.8
20260508002037 53 0 0.0 2.6 0.00 0.09 0.06 39 1005.7
20260508001547 54 8 0.0 2.6 0.00 0.09 0.06 38 1005.7
20260508001038 54 18 0.0 3.5 0.00 0.09 0.06 37 1005.6
20260508000540 54 14 0.0 3.5 0.00 0.09 0.06 37 1005.5
20260508000057 55 301 0.0 1.7 0.00 0.09 0.06 37 1005.5
20260507235539 55 304 0.0 3.5 0.00 0.09 0.06 37 1005.4
20260507235042 55 22 0.9 3.5 0.00 0.09 0.06 37 1005.4
20260507234555 56 329 0.0 2.6 0.00 0.09 0.06 36 1005.4
20260507234041 56 59 0.9 4.3 0.00 0.09 0.06 37 1005.4
20260507233538 56 58 0.9 4.3 0.00 0.09 0.06 37 1005.4
20260507233109 57 23 0.9 3.5 0.00 0.09 0.06 38 1005.3
20260507232538 57 298 0.0 1.7 0.00 0.09 0.06 38 1005.1
20260507232039 58 318 0.9 1.7 0.00 0.09 0.06 36 1005.2
20260507231553 58 329 0.0 1.7 0.00 0.09 0.06 36 1005.1
20260507231038 58 12 0.0 1.7 0.00 0.09 0.06 36 1005.1
20260507230538 59 44 0.9 2.6 0.00 0.09 0.06 36 1005.0
20260507230052 59 8 0.0 3.5 0.00 0.09 0.06 35 1004.9
20260507225538 59 56 1.7 3.5 0.00 0.10 0.06 35 1004.8
20260507225039 60 20 0.9 6.1 0.00 0.10 0.06 33 1004.6
20260507224549 60 360 0.9 6.1 0.00 0.10 0.06 33 1004.6
20260507224039 61 20 0.9 6.1 0.00 0.10 0.06 33 1004.7
20260507223540 61 252 1.7 6.1 0.00 0.10 0.06 33 1004.6
20260507223059 61 333 1.7 6.1 0.00 0.10 0.06 33 1004.5
20260507222539 61 302 0.9 3.5 0.00 0.10 0.06 33 1004.5
20260507222038 61 210 1.7 6.1 0.00 0.10 0.06 31 1004.3
20260507221549 61 341 1.7 6.1 0.00 0.10 0.06 32 1004.4
20260507221037 61 319 2.6 6.1 0.00 0.10 0.06 31 1004.4
20260507220538 60 346 1.7 5.2 0.00 0.10 0.06 33 1004.4
20260507220045 60 46 2.6 5.2 0.00 0.10 0.06 32 1004.3
20260507215538 61 29 0.9 7.0 0.00 0.15 0.06 31 1004.3
20260507215039 61 296 2.6 7.0 0.00 0.15 0.06 30 1004.3
20260507214550 62 211 3.5 6.1 0.00 0.15 0.06 31 1004.4
20260507214042 62 217 2.6 9.6 0.00 0.15 0.06 30 1004.3
20260507213542 63 309 2.6 9.6 0.00 0.15 0.06 30 1004.4
20260507213051 62 281 3.5 7.8 0.00 0.15 0.06 31 1004.4
20260507212544 62 319 2.6 7.8 0.00 0.15 0.06 32 1004.3
20260507212041 63 48 1.7 4.3 0.00 0.15 0.06 31 1004.4
20260507211601 62 26 0.9 4.3 0.00 0.15 0.06 31 1004.2
20260507211037 62 281 0.9 7.8 0.00 0.15 0.06 32 1004.3
20260507210539 62 318 2.6 7.8 0.00 0.15 0.06 30 1004.3
20260507210113 63 266 1.7 8.7 0.00 0.15 0.06 34 1004.2
20260507205541 62 271 0.9 8.7 0.00 0.24 0.06 34 1004.0
20260507205038 62 43 1.7 7.8 0.00 0.24 0.06 33 1004.0
20260507204551 62 0 1.7 7.8 0.00 0.24 0.06 35 1004.0
20260507204038 62 7 2.6 7.8 0.00 0.24 0.06 34 1004.1
20260507203538 63 342 1.7 7.8 0.00 0.24 0.06 30 1004.0
20260507203053 64 307 2.6 7.8 0.00 0.24 0.06 30 1004.1
20260507202537 63 271 2.6 7.0 0.00 0.24 0.06 33 1004.0
20260507202038 64 37 1.7 7.8 0.00 0.24 0.06 32 1004.0
20260507201546 64 341 1.7 7.8 0.00 0.24 0.06 31 1004.0
20260507201039 63 262 3.5 7.8 0.00 0.24 0.06 33 1004.0
20260507200541 62 284 1.7 5.2 0.00 0.24 0.06 33 1004.0
20260507200053 62 288 1.7 6.1 0.00 0.24 0.06 35 1004.0
20260507195543 62 73 2.6 6.1 0.00 0.36 0.06 34 1004.2
20260507195041 62 39 2.6 7.0 0.00 0.36 0.06 34 1004.2
20260507194553 63 67 1.7 11.3 0.00 0.36 0.06 33 1004.1
20260507194039 62 304 3.5 11.3 0.00 0.36 0.06 36 1004.2
20260507193542 62 279 4.3 11.3 0.00 0.36 0.06 33 1004.1
20260507193048 64 293 2.6 6.1 0.00 0.36 0.06 35 1004.2
20260507192537 63 45 2.6 8.7 0.00 0.36 0.06 36 1004.3
20260507192038 62 40 2.6 8.7 0.00 0.36 0.06 35 1004.3
20260507191549 62 54 3.5 11.3 0.00 0.36 0.06 35 1004.4
20260507191037 63 300 3.5 11.3 0.00 0.36 0.06 37 1004.4
20260507190538 62 288 2.6 7.8 0.00 0.36 0.06 40 1004.4
20260507190053 61 330 1.7 7.0 0.00 0.36 0.06 36 1004.3
20260507185537 62 319 2.6 10.4 0.00 0.40 0.06 37 1004.3
20260507185037 63 25 2.6 10.4 0.00 0.40 0.06 36 1004.3
20260507184547 62 29 4.3 12.2 0.00 0.40 0.06 35 1004.4
20260507184042 62 350 3.5 12.2 0.00 0.40 0.06 36 1004.5
20260507183537 62 285 2.6 8.7 0.00 0.40 0.06 38 1004.5
20260507183107 62 244 3.5 8.7 0.00 0.40 0.06 36 1004.4
20260507182538 62 309 3.5 8.7 0.00 0.40 0.06 39 1004.6
20260507182039 62 262 1.7 7.8 0.00 0.40 0.06 40 1004.4
20260507181558 61 303 2.6 7.8 0.00 0.40 0.06 43 1004.5
20260507181038 61 322 2.6 7.8 0.00 0.40 0.06 45 1004.6
20260507180536 62 1 2.6 7.0 0.00 0.40 0.06 43 1004.4
20260507180053 62 302 2.6 8.7 0.00 0.40 0.06 40 1004.4
20260507175538 62 239 2.6 8.7 0.00 0.40 0.06 41 1004.4
20260507175038 62 310 3.5 8.7 0.00 0.40 0.06 39 1004.6
20260507174556 61 250 1.7 7.8 0.00 0.40 0.06 48 1004.5
20260507174042 60 240 2.6 7.8 0.00 0.40 0.06 45 1004.7
20260507173537 60 275 1.7 7.8 0.00 0.40 0.06 46 1004.7
20260507173049 60 292 2.6 9.6 0.00 0.40 0.06 46 1004.8
20260507172536 61 356 3.5 9.6 0.00 0.40 0.06 46 1005.0
20260507172038 62 302 2.6 6.1 0.00 0.40 0.06 46 1005.0
20260507171553 62 290 2.6 10.4 0.00 0.40 0.06 45 1004.9
20260507171037 61 338 4.3 10.4 0.00 0.40 0.06 46 1004.9
20260507170538 61 321 2.6 6.1 0.00 0.40 0.06 47 1005.0
20260507170054 62 290 2.6 6.1 0.00 0.40 0.06 49 1005.0
20260507165539 61 231 2.6 6.1 0.00 0.40 0.06 50 1005.0
20260507165039 60 221 1.7 8.7 0.00 0.40 0.06 50 1005.1
20260507164622 60 303 3.5 8.7 0.00 0.40 0.06 50 1005.2
20260507164039 60 300 3.5 8.7 0.00 0.40 0.06 50 1005.2
20260507163541 60 289 2.6 7.8 0.00 0.40 0.06 52 1005.1
20260507163059 60 5 1.7 6.1 0.00 0.40 0.06 54 1005.2
20260507162538 61 353 1.7 8.7 0.00 0.40 0.06 51 1005.3
20260507162040 61 268 2.6 8.7 0.00 0.40 0.06 54 1005.2
20260507161559 61 293 2.6 8.7 0.00 0.40 0.06 52 1005.3
20260507161042 61 11 2.6 5.2 0.00 0.40 0.06 51 1005.3
20260507160541 61 300 1.7 5.2 0.00 0.40 0.06 53 1005.4
20260507160048 60 312 1.7 3.5 0.00 0.40 0.06 52 1005.5
20260507155539 59 0 0.9 5.2 0.00 0.40 0.06 53 1005.6
20260507155040 59 255 2.6 5.2 0.00 0.40 0.06 52 1005.7
20260507154556 59 289 0.0 3.5 0.00 0.40 0.06 56 1005.8
20260507154040 58 328 0.9 3.5 0.00 0.40 0.06 56 1005.8
20260507153542 58 335 0.9 3.5 0.00 0.40 0.06 54 1005.8
20260507153055 59 331 0.9 3.5 0.00 0.40 0.06 57 1006.0
20260507152541 59 292 0.9 5.2 0.00 0.40 0.06 53 1005.8
20260507152041 59 203 0.9 6.1 0.00 0.40 0.06 53 1005.8
20260507151549 59 18 1.7 6.1 0.00 0.40 0.06 54 1005.9
20260507151042 60 350 1.7 5.2 0.00 0.40 0.06 55 1006.1
20260507150539 60 217 0.0 4.3 0.00 0.40 0.06 55 1006.0
20260507150052 59 209 1.7 4.3 0.00 0.40 0.06 54 1006.0
20260507145538 59 49 0.9 4.3 0.00 0.40 0.06 57 1006.0
20260507145038 59 287 0.9 2.6 0.00 0.40 0.06 58 1006.1
20260507144549 58 187 0.0 2.6 0.00 0.40 0.06 57 1006.1
20260507144039 58 257 0.9 3.5 0.00 0.40 0.06 57 1006.1
20260507143539 58 271 0.9 3.5 0.00 0.40 0.06 59 1006.1
20260507143047 58 295 0.9 3.5 0.00 0.40 0.06 58 1006.1
20260507142540 57 4 0.9 6.1 0.00 0.40 0.06 61 1006.1
20260507142040 57 332 0.9 6.1 0.00 0.40 0.06 64 1006.2
20260507141556 57 305 0.9 3.5 0.00 0.40 0.06 63 1006.3
20260507141040 57 244 0.9 4.3 0.00 0.40 0.06 67 1006.4
20260507140540 56 291 0.9 4.3 0.00 0.40 0.06 67 1006.4
20260507140052 56 304 0.0 3.5 0.00 0.40 0.06 68 1006.4
20260507135537 56 0 0.9 3.5 0.00 0.40 0.06 68 1006.5
20260507135038 56 250 1.7 3.5 0.00 0.40 0.06 69 1006.5
20260507134550 55 224 0.9 5.2 0.00 0.40 0.06 70 1006.5
20260507134038 54 247 0.9 5.2 0.00 0.40 0.06 70 1006.5
20260507133538 54 307 1.7 4.3 0.00 0.40 0.06 71 1006.6
20260507133053 54 304 0.9 3.5 0.00 0.40 0.06 69 1006.6
20260507132537 54 33 0.9 3.5 0.00 0.40 0.06 69 1006.7
20260507132037 54 219 1.7 3.5 0.00 0.40 0.06 70 1006.7
20260507131553 54 243 0.9 2.6 0.00 0.40 0.06 70 1006.7
20260507131038 53 0 0.9 2.6 0.00 0.40 0.06 71 1006.6
20260507130543 53 32 0.0 3.5 0.00 0.40 0.06 71 1006.6
20260507130051 53 300 0.0 3.5 0.00 0.40 0.06 74 1006.6
20260507125538 52 314 0.9 3.5 0.00 0.40 0.06 72 1006.7
20260507125037 52 7 0.0 3.5 0.00 0.40 0.06 72 1006.8
20260507124602 52 45 0.0 3.5 0.00 0.40 0.06 73 1006.8
20260507124039 52 34 0.9 3.5 0.00 0.40 0.06 72 1006.8
20260507123539 51 338 0.9 5.2 0.00 0.40 0.06 73 1006.8
20260507123051 51 306 0.9 5.2 0.00 0.40 0.06 74 1006.9
20260507122538 51 309 0.9 5.2 0.00 0.40 0.06 76 1006.8
20260507122040 51 285 0.9 3.5 0.00 0.40 0.06 76 1006.8
20260507121552 50 51 0.0 4.3 0.00 0.40 0.06 79 1006.8
20260507121038 50 300 0.9 4.3 0.00 0.40 0.06 79 1006.7
20260507120538 50 311 0.9 3.5 0.00 0.40 0.06 79 1006.8
20260507120052 49 290 0.9 1.7 0.00 0.40 0.06 81 1006.8
20260507115538 49 0 0.0 2.6 0.00 0.40 0.06 81 1006.9
20260507115041 48 290 0.9 3.5 0.00 0.40 0.06 82 1006.9
20260507114603 48 246 0.9 3.5 0.00 0.40 0.06 84 1007.0
20260507114038 47 340 0.9 3.5 0.00 0.40 0.06 85 1006.9
20260507113538 47 347 0.9 3.5 0.00 0.40 0.06 87 1006.9
20260507113121 46 10 0.0 1.7 0.00 0.40 0.06 89 1006.7
20260507112541 46 306 0.0 1.7 0.00 0.40 0.06 88 1006.7
20260507112040 46 0 0.0 1.7 0.00 0.40 0.06 89 1006.8
20260507111556 47 3 0.9 1.7 0.00 0.40 0.06 89 1006.9
20260507111038 47 300 0.0 1.7 0.00 0.40 0.06 90 1007.0
20260507110539 46 290 0.0 1.7 0.00 0.40 0.06 90 1007.1
20260507110047 46 308 0.0 0.9 0.00 0.40 0.06 90 1007.1
20260507105538 46 291 0.0 0.9 0.00 0.40 0.06 90 1007.2
20260507105039 46 293 0.0 0.9 0.00 0.40 0.06 90 1006.6
20260507104550 46 0 0.0 0.9 0.00 0.40 0.06 90 1006.8
20260507104037 46 0 0.0 0.9 0.00 0.40 0.06 90 1007.2
20260507103537 46 0 0.0 0.9 0.00 0.40 0.06 89 1007.3
20260507103052 46 0 0.0 0.9 0.00 0.40 0.06 88 1006.8
20260507102541 46 0 0.0 0.9 0.00 0.40 0.06 88 1007.0
20260507102038 46 0 0.0 1.7 0.00 0.40 0.06 87 1006.9
20260507101548 46 293 0.0 1.7 0.00 0.40 0.06 88 1007.3
20260507101037 46 29 0.0 1.7 0.00 0.40 0.06 87 1006.6
20260507100538 46 30 0.0 1.7 0.00 0.40 0.06 88 1007.0
20260507100057 46 0 0.0 1.7 0.00 0.40 0.06 88 1006.8
20260507095539 46 0 0.0 1.7 0.00 0.40 0.06 88 1006.9
20260507095038 46 295 0.0 0.9 0.00 0.40 0.06 88 1007.0
20260507094547 46 319 0.0 0.9 0.00 0.40 0.06 87 1006.7
20260507094038 46 38 0.0 3.5 0.00 0.40 0.06 86 1006.7
20260507093537 46 38 0.9 3.5 0.00 0.40 0.06 86 1006.4
20260507093052 46 33 0.0 2.6 0.00 0.40 0.06 86 1006.4
20260507092538 46 307 0.0 3.5 0.00 0.40 0.06 86 1006.7
20260507092042 46 343 0.9 3.5 0.00 0.40 0.06 86 1006.0
20260507091605 46 358 0.0 2.6 0.00 0.40 0.06 86 1006.1
20260507091038 47 340 0.9 4.3 0.00 0.40 0.06 86 1005.9
20260507090538 47 0 0.9 4.3 0.00 0.40 0.06 86 1006.1
20260507090048 47 44 1.7 4.3 0.00 0.40 0.06 86 1006.4
20260507085539 47 11 0.9 4.3 0.00 0.40 0.06 86 1006.6
20260507085038 47 8 0.9 6.1 0.00 0.40 0.06 86 1006.4
20260507084553 47 302 0.9 6.1 0.00 0.40 0.06 86 1006.5
20260507084037 47 44 0.9 6.1 0.00 0.40 0.06 86 1006.5
20260507083538 47 340 0.9 5.2 0.00 0.40 0.06 87 1006.9
20260507083047 48 351 1.7 5.2 0.00 0.40 0.06 87 1006.7
20260507082538 48 347 0.9 6.1 0.00 0.40 0.06 88 1006.6
20260507082037 48 352 1.7 6.1 0.00 0.40 0.06 89 1006.2
20260507081556 48 31 1.7 6.1 0.00 0.40 0.06 90 1005.8
20260507081037 48 30 0.0 2.6 0.00 0.40 0.06 90 1005.9
20260507080540 48 356 0.9 2.6 0.00 0.40 0.06 90 1006.2
20260507080051 48 329 0.9 2.6 0.00 0.40 0.06 90 1006.5
20260507075538 48 0 0.0 2.6 0.00 0.40 0.06 90 1006.4
20260507075042 48 4 0.0 3.5 0.00 0.40 0.06 90 1006.1
20260507074556 48 336 0.9 3.5 0.00 0.40 0.06 90 1006.1
20260507074041 48 301 0.9 4.3 0.00 0.40 0.06 91 1006.1
20260507073538 48 3 1.7 4.3 0.00 0.40 0.06 91 1005.8
20260507073053 48 345 1.7 3.5 0.00 0.40 0.06 91 1006.1
20260507072538 48 17 0.9 3.5 0.00 0.40 0.06 92 1005.9
20260507072038 48 13 0.9 2.6 0.00 0.40 0.06 92 1005.9
20260507071552 48 27 0.9 2.6 0.00 0.40 0.06 92 1005.8
20260507071038 48 7 0.0 1.7 0.00 0.40 0.06 92 1005.8
20260507070538 48 2 0.9 1.7 0.00 0.40 0.06 92 1005.8
20260507070059 49 293 0.0 2.6 0.00 0.40 0.06 93 1005.9
20260507065540 49 302 0.0 2.6 0.00 0.40 0.06 93 1005.7
20260507065037 49 298 0.0 0.9 0.00 0.40 0.06 93 1005.7
20260507064552 49 294 0.0 0.9 0.00 0.40 0.06 93 1005.7
20260507064040 49 302 0.0 0.9 0.00 0.40 0.06 93 1005.7
20260507063539 49 0 0.0 0.9 0.00 0.40 0.06 93 1005.5
20260507063053 49 302 0.0 0.9 0.00 0.40 0.06 93 1005.5
20260507062538 49 0 0.0 0.9 0.00 0.40 0.06 93 1005.4
20260507062038 49 0 0.0 0.9 0.00 0.40 0.06 93 1005.5
20260507061552 49 330 0.0 0.9 0.00 0.40 0.06 93 1005.5
20260507061041 49 0 0.0 0.9 0.00 0.40 0.06 92 1005.5
20260507060538 49 0 0.0 0.9 0.00 0.40 0.06 92 1005.1
20260507060100 49 0 0.0 3.5 0.00 0.40 0.06 92 1005.3
20260507055538 49 12 0.9 3.5 0.00 0.40 0.06 92 1005.3
20260507055039 49 18 0.0 2.6 0.00 0.40 0.06 92 1005.4
20260507054549 50 290 0.9 1.7 0.00 0.40 0.06 92 1005.3
20260507054040 50 20 0.0 3.5 0.00 0.40 0.06 92 1005.5
20260507053538 50 5 0.9 3.5 0.01 0.40 0.06 92 1005.3
20260507053053 50 49 0.0 3.5 0.01 0.40 0.06 92 1005.0
20260507052544 50 27 0.9 3.5 0.01 0.40 0.06 93 1005.4
20260507052038 51 26 0.9 3.5 0.01 0.40 0.06 93 1005.4
20260507051552 51 353 0.9 2.6 0.01 0.40 0.06 93 1005.4
20260507051037 51 0 0.9 6.1 0.03 0.40 0.06 93 1005.1
20260507050537 51 27 0.9 7.0 0.04 0.40 0.06 93 1005.0
20260507050052 51 358 1.7 7.0 0.06 0.40 0.06 93 1005.0
20260507045540 51 64 2.6 13.0 0.06 0.40 0.06 93 1005.1
20260507045037 52 328 1.7 13.0 0.06 0.40 0.06 93 1004.9
20260507044555 53 2 2.6 13.0 0.06 0.40 0.06 93 1004.8
20260507044037 54 37 2.6 7.0 0.06 0.40 0.06 94 1004.6
20260507043538 55 0 0.0 2.6 0.05 0.39 0.05 96 1004.4
20260507043101 55 11 0.0 2.6 0.05 0.39 0.05 96 1004.5
20260507042536 55 0 0.0 0.9 0.05 0.39 0.05 96 1004.5
20260507042044 55 0 0.0 0.9 0.05 0.39 0.05 96 1004.4
20260507041556 55 263 0.0 0.9 0.05 0.39 0.05 96 1004.4
20260507041039 55 0 0.0 0.9 0.03 0.37 0.03 95 1004.4
20260507040539 55 0 0.0 0.9 0.02 0.36 0.02 95 1004.3
20260507040047 54 0 0.0 0.9 0.00 0.34 0.00 95 1004.5
20260507035539 55 249 0.0 0.9 0.00 0.34 0.34 95 1004.5
20260507035040 55 249 0.0 0.9 0.00 0.34 0.34 96 1004.4
20260507034554 54 173 0.0 0.9 0.00 0.34 0.34 95 1004.3
20260507034038 54 173 0.0 0.9 0.00 0.34 0.34 95 1004.2